041214 704  0.1-  0.4+    050402 703  1.0+  0.6-    060407 048  0.7+  0.2-  

041214 703  0.2+  0.7-    050410 703 (3.1+  2.1-)   060407 048  0.3+  0.1-  

041214 H42  0.3-  0.4+    050410 703 (2.5+  1.2-)   060407 048  0.1+  0.2-  

041214 704  0.7-  0.5+    050410 703  1.9+  1.2-    060407 442  0.4-  0.2+  

041214 704  0.4-  0.2-    050410 703  1.8+  0.6-    060407 442  1.3-  0.7+  

041214 H42  0.2-  0.2+    050419 703  1.7+  1.7-    060408 703  1.1-  0.4-  

041214 215  0.3-  0.5+    050419 703  1.9+  1.9-    060408 703  0.7-  0.1-  

041214 215  0.9-  0.1+    050419 703  1.6+  1.7-    060408 703  0.5-  0.1+  

041214 215  0.4-  0.1-    050419 703 (2.9+  1.9-)   060414 349  0.5-  0.0   

041214 215  0.4-  0.5+    050503 349  1.3+  0.4-    060414 349  1.0-  0.3+  

041214 104  0.4-  0.6+    050503 349  1.2+  0.2-    060416 204  0.0   0.2-  

041214 104  0.5-  0.4+    050503 349  1.2+  0.2-    060416 204  0.2+  0.1-  

041214 104  0.5-  0.5+    050504 349  0.0   1.3-    060419 704  1.0+  0.7+  

041214 104  0.3-  0.5+    050504 349  1.0+  0.5-    060419 704  0.5+  0.0   

041215 H42  0.4-  0.7+    050507 349  0.2+  0.3-    060419 704  0.2-  0.4+  

041215 H42  0.1+  0.1+    050507 349  0.2+  0.5-    060423 699 (7.3-  1.1+) 

041215 H42  0.2-  0.1+    050917 349  0.8+  1.2-    060423 699 (4.1-  0.4+) 

041215 H42  0.6-  0.1-    050917 349  1.2+  0.8-    060423 699  1.4-  0.6+  

041215 H42  0.2-  0.1+    050917 349  1.2+  1.0-    060423 699 (3.5-  0.9+) 

041215 372  1.5-  1.0+    050930 349  1.4+  0.8-    060424 H47  0.3-  0.9-  

041215 372  0.0   0.9+    050930 349  1.0+  0.7-    060424 H47  0.8+  0.6-  

041215 213  0.4-  0.5+    050930 349  0.9+  0.5-    060426 J67  0.4+  0.3-  

041215 213  0.4-  0.7+    051024 349  1.1+  0.1-    060426 J67  0.2+  0.5-  

041215 213  0.4-  0.7+    051024 349  0.8+  0.0     060426 J67  0.1-  1.0-  

041216 704  0.2-  1.4+    051024 349  0.9+  0.0     060427 704  0.1+  0.5-  

041216 704  0.3-  1.1+    051031 215  0.2-  0.5-    060427 704  0.6-  0.8+  

041216 704  0.3-  1.4+    051031 215  0.0   0.1-    060427 704  0.4-  0.4-  

041216 704  0.2-  0.7+    051031 215  0.3-  0.3-    060427 704  0.9-  0.1-  

041217 D83  0.1-  1.4-    051031 215  0.2-  0.3-    060429 442  0.6-  0.4+  

041217 D83  1.2+  0.6+    051112 D83  0.7-  0.3+    060429 442  1.4-  0.3-  

041217 D83  0.3-  1.5-    051112 D83  0.9-  0.0     060429 442  0.3+  0.8+  

041217 D83  0.8-  0.8-    051112 D83  0.4-  0.3-    060430 J78  1.1+  0.2-  

041218 349  0.6-  0.0     051112 D83  0.6-  0.1-    060502 118  0.1+  0.5-  

041218 349  0.1-  0.0     051112 349  0.5-  0.0     060502 118  0.4+  0.6-  

041218 349  0.5-  0.0     051112 349  0.4-  0.3-    060502 118  0.4+  0.5-  

041218 213  0.8-  0.3+    051112 349  0.4-  0.2-    060502 118  0.1+  0.7-  

041219 213  0.2-  0.2+    051122 349  0.4-  0.3-    060502 118  0.4+  0.4-  

041219 A61  0.2-  1.2-    051122 349  0.2-  0.1-    060502 585  0.6+  0.8+  

041219 A61 (1.8-  2.9-)   051122 349  0.3-  0.2-    060502 585  0.2-  1.2+  

041219 A61  1.7-  0.1-    051210 349  2.0-  0.2+    060502 585  0.2+  1.2+  

041219 J76  0.7-  0.3+    051210 349  1.8-  0.2+    060502 585 (2.1+  2.6-) 

041219 J76  0.4-  0.2+    051210 349  1.8-  0.5+    060504 349  0.1-  0.4-  

041219 J76  0.4-  0.4+    051219 349  1.3-  0.5+    060504 349  0.2-  0.3-  

041220 048  0.0   1.5-    051219 349  1.1-  0.6+    060504 349  0.3-  0.3-  

041220 048 (0.2-  2.4-)   051219 349  1.1-  0.3+    060513 I05 (0.6-  5.8-) 

041220 048  1.6+  0.9-    051230 703(16.4-  6.2+)   060513 644  0.5+  0.5-  

041227 J78  0.1+  0.4-    051230 703(16.9-  6.3+)   060513 644  0.7+  0.5-  

041227 213  0.5-  1.3+    051230 703(17.9-  7.3+)   060513 644  0.7+  0.7-  

041227 213  0.6-  1.8+    051230 703(17.3-  6.6+)   060517 104  0.1+  0.8+  

041230 349  0.2-  0.3-    2006/                     060517 104 (2.7-  0.3-) 

041230 608  1.9-  1.2+    060104 683 (5.6-  2.3+)   060517 104  0.1-  1.6+  

041230 349  0.1-  0.2-    060104 683 (4.2-  2.5+)   060517 J76  1.0+  0.1-  

041230 608  1.8-  0.3+    060105 683 (5.0-  1.4+)   060517 J76  0.8+  0.0   

041230 349  0.1+  0.0     060105 683 (6.3-  2.5+)   060517 J76  1.1+  0.1+  

041230 608  1.5-  0.8+    060106 349  1.0-  0.2+    060518 683  0.3+  0.2-  

041231 104  0.1+  0.2+    060106 349  1.0-  0.1+    060518 683  1.1+  0.9-  

041231 104  0.1+  0.3+    060106 349  1.1-  0.3+    060518 683  1.1+  0.0   

041231 104  0.4-  0.3+    060107 683 (4.1-  2.2+)   060519 683  1.7+  0.1+  

2005/                     060107 683 (2.9-  1.9+)   060519 683  1.3-  1.0+  

050101 349  0.2+  0.2-    060109 683 (2.4-  1.1+)   060520 I05 (8.8-  1.9+) 

050101 349  0.5+  0.0     060109 683 (4.6-  2.6+)   060520 I05 (7.4-  3.2+) 

050101 349  0.6+  0.0     060112 704 (2.8-  0.1+)   060520 683  0.1-  0.0   

050101 J78  0.5-  0.3+    060112 704 (2.5-  0.9+)   060520 683  0.6+  0.6+  

050101 170  0.0   0.1-    060112 704 (2.3-  1.2+)   060520 683  1.6-  1.3+  

050101 170  0.3-  0.3+    060112 704  1.5-  1.1+    060520 D88  1.1+  0.4-  

050101 170  0.1-  0.0     060112 704  0.1-  0.4-    060520 D88  1.1+  0.0   

050102 372 (2.5+  0.3+)   060112 349  1.1-  0.9+    060520 D88  0.7+  0.3-  

050102 D88  0.1+  0.1-    060112 349  0.7-  0.9+    060521 683  1.7-  0.0   

050102 D88  0.9-  0.2-    060123 683 (4.7-  1.5+)   060521 683  1.8-  1.9+  

050102 D88  0.8+  1.2+    060123 683 (7.1-  2.9+)   060521 683 (3.4-  0.8+) 

050103 A61  1.0+  1.7-    060127 I77  1.0+  1.4-    060524 J97  0.0   0.3+  

050103 A61  0.0   0.9-    060127 I77  1.1-  0.8+    060525 704  0.6+  0.0   

050103 A61  0.1-  0.8-    060127 I77 (2.2-  0.2-)   060525 704  0.8+  0.0   

050104 372  1.3+  0.1-    060127 683 (5.5-  2.5+)   060525 704  1.0+  0.3+  

050104 372  1.6+  1.6+    060127 683 (6.2-  2.6+)   060525 704  0.4+  0.5-  

050105 213  0.2-  0.1+    060128 683 (5.9-  2.3+)   060525 704  0.1-  0.2+  

050105 213  0.1+  0.2+    060128 683 (7.6-  2.7+)   060526 699  0.0   0.9+  

050105 213  0.3+  0.2+    060130 683 (3.5-  1.0+)   060526 699  0.1-  0.6+  

050106 704  0.6+  0.8-    060130 683 (2.1-  0.4+)   060526 699  0.9-  0.7-  

050106 704  0.2+  0.5-    060130 683  1.1-  0.1+    060526 699  0.4+  0.1+  

050106 704  0.1+  0.2+    060131 683  0.9-  0.6+    060526 442 (2.7+  0.9-) 

050106 704  0.1-  0.8+    060131 683 (4.6-  1.8+)   060526 958  1.1+  0.3-  

050106 704  0.1-  1.4+    060131 683 (8.5-  2.6+)   060526 958  0.6+  0.1+  

050107 204  0.6-  0.2+    060201 683 (4.2-  2.5+)   060526 958  0.9+  0.6-  

050107 204  0.3-  0.2+    060201 683 (5.5-  2.6+)   060526 I05 (0.6-  2.2+) 

050108 349  0.1-  0.2-    060201 683(10.0-  3.8+)   060526 I05  1.7+  0.6-  

050108 349  0.3-  0.0     060201 349  0.5-  0.9+    060528 232  2.0+  0.5+  

050108 349  0.2-  0.4+    060201 349  0.7-  0.9+    060528 844  0.9-  1.6+  

050108 J76  0.2-  0.4-    060201 349  0.8-  0.7+    060528 232  1.2+  0.2-  

050108 J76  0.7-  0.5-    060202 683 (4.1-  1.3+)   060528 844  0.2+  1.1-  

050108 J76  0.4-  0.2+    060202 683 (6.0-  2.4+)   060528 232  0.5+  0.8-  

050108 213  0.2+  0.1+    060202 683 (6.6-  2.6+)   060528 844  0.0   0.5+  

050108 213  0.1+  0.2-    060203 704  0.4-  0.9-    060528 844  0.3-  0.3+  

050108 213  0.0   0.1+    060203 704  0.3+  0.3-    060528 844 (4.2+  3.0+) 

050109 938  0.0   0.7-    060203 683 (3.9-  1.0+)   060528 J97  1.0+  0.6-  

050109 938  0.6+  0.6+    060203 704  1.1+  1.5-    060530 704  1.6+  0.8+  

050110 349  0.1-  0.2-    060203 704  0.7+  0.0     060530 704 (3.7+  0.3+) 

050110 349  0.1+  0.5-    060203 683 (6.5-  2.3+)   060530 704  1.1+  0.9+  

050110 349  0.1+  0.2-    060203 704 (0.1+  2.6+)   060530 704  1.2+  0.1+  

050111 704  0.1-  0.0     060204 322 (0.4-  2.3+)   060530 704  1.4+  0.5+  

050111 704  1.6+  0.8+    060204 322  0.9-  1.7+    060602 213 (2.2+  0.8-) 

050111 704  0.7-  0.2+    060204 322 (2.1-  1.0+)   060602 213  1.4+  0.6-  

050111 704  0.0   0.1-    060206 683 (2.6-  1.1+)   060602 213  1.9+  0.7-  

050111 704  0.6-  0.9+    060206 683 (2.3-  1.7+)   060604 J97  0.3+  0.1-  

050114 104  0.6-  0.3+    060207 683  1.2-  0.8+    060610 118  2.0+  0.0   

050114 104  0.5-  0.4+    060207 683  1.3-  0.6+    060610 118  0.1-  0.3+  

050114 104  0.7-  0.2+    060210 349  0.3-  0.4+    060615 850  0.6+  0.6-  

050114 104  0.5-  0.2+    060210 349  0.3-  0.6+    060615 850  0.7+  0.9-  

050114 213  0.3+  0.5+    060210 349  0.5-  0.5+    060616 850 (1.6+  2.4+) 

050114 213  0.4-  0.1+    060224 H06  0.1-  0.0     060616 850  1.3-  0.3+  

050114 213  0.3-  0.2+    060224 H06  0.5-  0.3+                            

050116 201  0.4+  0.2-    060225 232  0.7+  0.1-                            



NAKANO

         **** Don't distribute anyone except personal use only ****

                (C) Copyright 2006 OAA/ComputingSection

write mail from CFAD0::NAKANO on 2006-06-20 02:59:40(JST).

 



    P/2004 VR8 (LONEOS)

Epoch 2005 Aug. 18.0 TT = JDT 2453600.5  

T 2005 Sept. 2.50422 TT                                 Nakano

q   2.3757362            (2000.0)            P               Q

n   0.09234421     Peri.   63.09761     -0.64707876     -0.68939118

a   4.8476315      Node    71.21612     +0.51840353     -0.71099911

e   0.5099181      Incl.   20.11704     +0.55905891     -0.13863644

P  10.67 (+/- 0.01 day)

From 405 observations 2004 Nov. 3-2006 Feb. 2, mean residual 0".66.



NAKANO

         **** Don't distribute anyone except personal use only ****

                (C) Copyright 2006 OAA/ComputingSection

write mail from CFAD0::NAKANO on 2006-02-06 06:49:21(JST).

 

    P/2004 VR8 (LONEOS)

Epoch 2005 Aug. 18.0 TT = JDT 2453600.5  

T 2005 Sept. 2.50703 TT                                 Nakano

q   2.3757263            (2000.0)            P               Q

n   0.09234917     Peri.   63.09844     -0.64708981     -0.68938156

a   4.8474579      Node    71.21616     +0.51839360     -0.71100668

